TRA86P LGKR-EHAM

Flight info

Callsign TRA86P
Flight time N/A
Altitude 34000
Route OLGAT DCT ABADI DCT CRAYE DCT GISAM DCT KOTOR DCT GORPA DCT SIMBA DCT GASKA DCT MAPOX DCT NORKU
Aircraft B738/M-SDE2E3FGHIRWXY/LB1

Departure

Time 2026-05-07 07:50
Airport Corfu Ioannis Kapodistrias International Airport (LGKR)

Arrival

Time N/A
Airport Amsterdam Airport Schiphol (EHAM)
Time Latitude Longitude Altitude Speed Heading
2026-05-07 07:13 39.60743 19.91343 17 ft 0 kts 79°
2026-05-07 07:40 39.60742 19.91339 17 ft 3 kts 78°
2026-05-07 07:41 39.60738 19.91310 19 ft 3 kts 80°
2026-05-07 07:41 39.60735 19.91282 17 ft 3 kts 95°
2026-05-07 07:41 39.60740 19.91260 20 ft 3 kts 151°
2026-05-07 07:41 39.60745 19.91257 19 ft 0 kts 169°
2026-05-07 07:44 39.60744 19.91257 19 ft 1 kts 169°
2026-05-07 07:44 39.60731 19.91260 17 ft 3 kts 169°
2026-05-07 07:44 39.60704 19.91267 17 ft 5 kts 169°
2026-05-07 07:45 39.60663 19.91271 17 ft 7 kts 182°
2026-05-07 07:45 39.60615 19.91246 18 ft 8 kts 219°
2026-05-07 07:45 39.60575 19.91195 18 ft 8 kts 218°
2026-05-07 07:45 39.60529 19.91160 19 ft 8 kts 206°
2026-05-07 07:46 39.60474 19.91146 18 ft 9 kts 179°
2026-05-07 07:46 39.60402 19.91160 18 ft 12 kts 169°
2026-05-07 07:46 39.60303 19.91185 19 ft 16 kts 169°
2026-05-07 07:46 39.60178 19.91217 21 ft 20 kts 168°
2026-05-07 07:47 39.60023 19.91258 20 ft 25 kts 168°
2026-05-07 07:47 39.59930 19.91281 21 ft 26 kts 168°
2026-05-07 07:47 39.59866 19.91298 22 ft 27 kts 169°
2026-05-07 07:47 39.59664 19.91350 19 ft 31 kts 169°
2026-05-07 07:48 39.59450 19.91405 17 ft 31 kts 169°
2026-05-07 07:48 39.59267 19.91452 17 ft 16 kts 168°
2026-05-07 07:48 39.59195 19.91498 17 ft 8 kts 142°
2026-05-07 07:48 39.59153 19.91496 16 ft 4 kts 251°
2026-05-07 07:49 39.59167 19.91480 16 ft 3 kts 346°
2026-05-07 07:49 39.59212 19.91469 17 ft 23 kts 348°
2026-05-07 07:49 39.59624 19.91362 19 ft 98 kts 348°
2026-05-07 07:49 39.60512 19.91132 21 ft 160 kts 349°
2026-05-07 07:50 39.61711 19.90830 484 ft 179 kts 349°
2026-05-07 07:50 39.62587 19.90598 1090 ft 182 kts 348°
2026-05-07 07:50 39.63825 19.90207 1992 ft 181 kts 345°
2026-05-07 07:50 39.64994 19.89551 2681 ft 191 kts 323°
2026-05-07 07:51 39.65566 19.88696 2920 ft 205 kts 296°
2026-05-07 07:51 39.65813 19.87228 3180 ft 219 kts 270°
2026-05-07 07:51 39.65784 19.85204 3638 ft 228 kts 268°
2026-05-07 07:52 39.65741 19.83116 4212 ft 235 kts 268°
2026-05-07 07:52 39.65704 19.80982 4888 ft 240 kts 269°
2026-05-07 07:52 39.66118 19.78902 5632 ft 245 kts 301°
2026-05-07 07:52 39.67237 19.77102 5996 ft 268 kts 312°
2026-05-07 07:53 39.68587 19.75343 5985 ft 275 kts 314°
2026-05-07 07:53 39.69963 19.73603 6357 ft 276 kts 314°
2026-05-07 07:53 39.71321 19.71862 7180 ft 277 kts 313°
2026-05-07 07:53 39.72685 19.70081 8031 ft 279 kts 311°
2026-05-07 07:54 39.74055 19.68257 8796 ft 283 kts 310°
2026-05-07 07:54 39.75428 19.66409 9634 ft 286 kts 309°
2026-05-07 07:54 39.76797 19.64557 10370 ft 290 kts 309°
2026-05-07 07:54 39.78237 19.62593 10635 ft 312 kts 309°
2026-05-07 07:55 39.79789 19.60472 10830 ft 334 kts 309°
2026-05-07 07:55 39.81426 19.58237 11300 ft 344 kts 309°
2026-05-07 07:55 39.83089 19.55969 12044 ft 346 kts 309°
2026-05-07 07:55 39.84734 19.53723 12828 ft 346 kts 308°
2026-05-07 07:56 39.86409 19.51448 13576 ft 348 kts 309°
2026-05-07 07:56 39.88102 19.49175 14253 ft 351 kts 309°
2026-05-07 07:56 39.89825 19.46869 14827 ft 356 kts 309°
2026-05-07 07:56 39.91545 19.44565 15401 ft 360 kts 309°
2026-05-07 07:57 39.93303 19.42209 15980 ft 364 kts 310°
2026-05-07 07:57 39.95083 19.39818 16598 ft 368 kts 310°
2026-05-07 07:57 39.96881 19.37401 17231 ft 372 kts 310°
2026-05-07 07:57 39.98695 19.34961 17839 ft 376 kts 310°
2026-05-07 07:58 40.00506 19.32522 18409 ft 380 kts 310°
2026-05-07 07:58 40.02353 19.30031 18901 ft 384 kts 310°
2026-05-07 07:58 40.04219 19.27513 19389 ft 387 kts 310°
2026-05-07 07:58 40.06099 19.24974 19877 ft 390 kts 310°
2026-05-07 07:59 40.07998 19.22406 20359 ft 394 kts 310°
2026-05-07 07:59 40.09891 19.19845 20820 ft 397 kts 310°
2026-05-07 07:59 40.11820 19.17232 21266 ft 401 kts 310°
2026-05-07 07:59 40.13632 19.14775 21688 ft 404 kts 310°
2026-05-07 08:00 40.15596 19.12111 22119 ft 408 kts 310°
2026-05-07 08:00 40.17577 19.09420 22562 ft 412 kts 310°
2026-05-07 08:00 40.19578 19.06702 22959 ft 416 kts 310°
2026-05-07 08:00 40.21570 19.03991 23360 ft 420 kts 310°
2026-05-07 08:01 40.23612 19.01216 23754 ft 424 kts 311°
2026-05-07 08:01 40.25933 18.98782 24070 ft 434 kts 327°
2026-05-07 08:01 40.28615 18.96890 24479 ft 437 kts 329°
2026-05-07 08:01 40.31293 18.95089 24844 ft 439 kts 329°
2026-05-07 08:02 40.34033 18.93253 25180 ft 442 kts 329°
2026-05-07 08:02 40.36782 18.91390 25521 ft 445 kts 329°
2026-05-07 08:02 40.39538 18.89498 25860 ft 448 kts 329°
2026-05-07 08:02 40.42301 18.87580 26196 ft 450 kts 329°
2026-05-07 08:03 40.45081 18.85637 26513 ft 452 kts 328°
2026-05-07 08:03 40.47830 18.83709 26840 ft 455 kts 328°
2026-05-07 08:03 40.50643 18.81732 27150 ft 457 kts 328°
2026-05-07 08:03 40.53455 18.79755 27465 ft 460 kts 328°
2026-05-07 08:04 40.56293 18.77758 27781 ft 462 kts 328°
2026-05-07 08:04 40.59132 18.75759 28084 ft 464 kts 328°
2026-05-07 08:04 40.61955 18.73770 28383 ft 466 kts 329°
2026-05-07 08:04 40.64827 18.71745 28678 ft 468 kts 329°
2026-05-07 08:05 40.67713 18.69708 28966 ft 470 kts 329°
2026-05-07 08:05 40.70608 18.67663 29244 ft 472 kts 329°
2026-05-07 08:05 40.73518 18.65605 29527 ft 474 kts 329°
2026-05-07 08:05 40.76402 18.63568 29800 ft 476 kts 329°
2026-05-07 08:06 40.79353 18.61535 30075 ft 478 kts 330°
2026-05-07 08:06 40.82325 18.59523 30395 ft 478 kts 330°
2026-05-07 08:06 40.85277 18.57537 30786 ft 475 kts 330°
2026-05-07 08:06 40.88220 18.55555 31192 ft 472 kts 330°
2026-05-07 08:07 40.91142 18.53581 31533 ft 471 kts 330°
2026-05-07 08:07 40.94017 18.51629 31834 ft 470 kts 330°
2026-05-07 08:07 40.96935 18.49643 32145 ft 470 kts 329°
2026-05-07 08:07 40.99855 18.47650 32480 ft 468 kts 329°
2026-05-07 08:08 41.02714 18.45697 32783 ft 467 kts 329°
2026-05-07 08:09 41.13984 18.37978 33930 ft 464 kts 329°
2026-05-07 08:09 41.16865 18.36001 34187 ft 464 kts 329°
2026-05-07 08:09 41.19728 18.34033 34437 ft 463 kts 329°
2026-05-07 08:09 41.22549 18.32093 34704 ft 461 kts 329°
2026-05-07 08:10 41.25392 18.30136 34966 ft 459 kts 329°
2026-05-07 08:10 41.28228 18.28182 35214 ft 458 kts 329°
2026-05-07 08:10 41.31054 18.26232 35444 ft 457 kts 328°
2026-05-07 08:10 41.33880 18.24280 35667 ft 456 kts 328°
2026-05-07 08:11 41.36695 18.22334 35902 ft 455 kts 328°
2026-05-07 08:11 41.39501 18.20392 36092 ft 455 kts 328°